When you browse on this site, cookies collect data to enhance your experience and personalize the content and advertising you see.
Visit our Privacy Policy to learn more. By continuing to use the site, you agree to this use of cookies and data.
  • In Hungary
  • List of Countries
  • For 7 days
  • Water Temperature
  • Satellite Maps
  • Weather Map
  • News
  • Weather Widgets
  • user-avatar
    Login

    Hourly Weather Lucena

    Today, 20 January, Sunday

    Time Temperature Precipitation Wind Pressure Humidity
    00:00 +9°C° 0 mm 3 mps 712 mmHg 88%
    01:00 +9°C° 0.5 mm 3 mps 712 mmHg 91%
    02:00 +8°C° 0.5 mm 4 mps 711 mmHg 94%
    03:00 +8°C° 0.5 mm 5 mps 711 mmHg 96%
    04:00 +8°C° 0.6 mm 5 mps 711 mmHg 97%
    05:00 +8°C° 0.6 mm 5 mps 710 mmHg 97%
    06:00 +8°C° 0 mm 4 mps 710 mmHg 97%
    07:00 +8°C° 0.7 mm 5 mps 710 mmHg 97%
    08:00 +8°C° 0.7 mm 5 mps 711 mmHg 96%
    09:00 +8°C° 0.7 mm 5 mps 711 mmHg 96%
    10:00 +8°C° 0.1 mm 5 mps 711 mmHg 91%
    11:00 +9°C° 0.1 mm 5 mps 712 mmHg 85%
    12:00 +8°C° 0 mm 5 mps 712 mmHg 82%
    13:00 +9°C° 0.1 mm 5 mps 712 mmHg 76%
    14:00 +11°C° 0.1 mm 4 mps 713 mmHg 70%
    15:00 +11°C° 0.1 mm 4 mps 713 mmHg 64%
    16:00 +10°C° 0 mm 4 mps 713 mmHg 67%
    17:00 +9°C° 0 mm 3 mps 713 mmHg 69%
    18:00 +8°C° 0 mm 2 mps 714 mmHg 71%
    19:00 +8°C° 0 mm 2 mps 714 mmHg 73%
    20:00 +8°C° 0 mm 1 mps 715 mmHg 75%
    21:00 +7°C° 0 mm 1 mps 715 mmHg 77%
    22:00 +7°C° 0 mm 1 mps 715 mmHg 77%
    23:00 +6°C° 0 mm 1 mps 716 mmHg 77%

    Tomorrow, 21 January, Monday

    Time Temperature Precipitation Wind Pressure Humidity
    00:00 +6°C° 0 mm 1 mps 716 mmHg 77%
    01:00 +5°C° 0 mm 1 mps 716 mmHg 77%
    02:00 +5°C° 0 mm 1 mps 716 mmHg 77%
    03:00 +5°C° 0 mm 1 mps 716 mmHg 77%
    04:00 +4°C° 0 mm 1 mps 716 mmHg 78%
    05:00 +4°C° 0 mm 1 mps 716 mmHg 78%
    06:00 +4°C° 0 mm 1 mps 716 mmHg 79%
    07:00 +4°C° 0 mm 1 mps 717 mmHg 76%
    08:00 +5°C° 0 mm 1 mps 717 mmHg 73%
    09:00 +6°C° 0 mm 1 mps 717 mmHg 71%
    10:00 +7°C° 0 mm 1 mps 718 mmHg 65%
    11:00 +8°C° 0 mm 2 mps 718 mmHg 58%
    12:00 +9°C° 0 mm 3 mps 718 mmHg 52%
    13:00 +10°C° 0 mm 3 mps 718 mmHg 50%
    14:00 +10°C° 0 mm 3 mps 718 mmHg 48%
    15:00 +10°C° 0 mm 3 mps 717 mmHg 46%
    16:00 +9°C° 0 mm 3 mps 718 mmHg 50%
    17:00 +8°C° 0 mm 2 mps 718 mmHg 54%
    18:00 +7°C° 0 mm 1 mps 718 mmHg 58%
    19:00 +7°C° 0 mm 1 mps 718 mmHg 60%
    20:00 +6°C° 0 mm 1 mps 718 mmHg 62%
    21:00 +6°C° 0 mm 1 mps 718 mmHg 63%
    22:00 +6°C° 0 mm 1 mps 718 mmHg 65%
    23:00 +5°C° 0 mm 1 mps 719 mmHg 66%

    Day after tomorrow, 22 January, Tuesday

    Time Temperature Precipitation Wind Pressure Humidity
    00:00 +5°C° 0 mm 1 mps 719 mmHg 68%
    01:00 +5°C° 0 mm 1 mps 718 mmHg 69%
    02:00 +4°C° 0 mm 1 mps 718 mmHg 70%
    03:00 +4°C° 0 mm 1 mps 718 mmHg 71%
    04:00 +4°C° 0 mm 1 mps 718 mmHg 72%
    05:00 +4°C° 0 mm 1 mps 718 mmHg 73%
    06:00 +4°C° 0 mm 1 mps 717 mmHg 73%
    07:00 +4°C° 0 mm 1 mps 717 mmHg 72%
    08:00 +5°C° 0 mm 1 mps 718 mmHg 70%
    09:00 +6°C° 0 mm 1 mps 718 mmHg 69%
    10:00 +6°C° 0 mm 2 mps 718 mmHg 65%
    11:00 +7°C° 0 mm 3 mps 717 mmHg 61%
    12:00 +9°C° 0 mm 3 mps 717 mmHg 58%
    13:00 +8°C° 0 mm 4 mps 716 mmHg 59%
    14:00 +8°C° 0 mm 5 mps 716 mmHg 59%
    15:00 +8°C° 0 mm 6 mps 715 mmHg 60%
    16:00 +7°C° 0 mm 5 mps 715 mmHg 66%
    17:00 +6°C° 0 mm 4 mps 715 mmHg 73%
    18:00 +6°C° 0 mm 4 mps 715 mmHg 80%
    19:00 +6°C° 0.1 mm 4 mps 715 mmHg 82%
    20:00 +6°C° 0.1 mm 4 mps 715 mmHg 83%
    21:00 +6°C° 0.1 mm 4 mps 715 mmHg 85%
    22:00 +6°C° 0.1 mm 4 mps 715 mmHg 88%
    23:00 +6°C° 0.1 mm 4 mps 715 mmHg 91%

    23 January, Wednesday

    Time Temperature Precipitation Wind Pressure Humidity
    00:00 +7°C° 0.1 mm 3 mps 715 mmHg 93%
    01:00 +5°C° 0 mm 3 mps 715 mmHg 94%
    02:00 +5°C° 0 mm 2 mps 715 mmHg 95%
    03:00 +5°C° 0 mm 2 mps 715 mmHg 96%
    04:00 +4°C° 0 mm 2 mps 715 mmHg 95%
    05:00 +5°C° 0 mm 1 mps 715 mmHg 95%
    06:00 +4°C° 0 mm 1 mps 715 mmHg 94%
    07:00 +4°C° 0 mm 1 mps 715 mmHg 91%
    08:00 +5°C° 0 mm 1 mps 715 mmHg 88%
    09:00 +4°C° 0 mm 2 mps 716 mmHg 85%
    10:00 +5°C° 0 mm 2 mps 715 mmHg 80%
    11:00 +7°C° 0 mm 3 mps 715 mmHg 75%
    12:00 +7°C° 0 mm 4 mps 715 mmHg 69%
    13:00 +7°C° 0 mm 4 mps 714 mmHg 70%
    14:00 +8°C° 0 mm 4 mps 714 mmHg 70%
    15:00 +8°C° 0 mm 4 mps 713 mmHg 70%
    16:00 +8°C° 0 mm 4 mps 713 mmHg 72%
    17:00 +8°C° 0 mm 4 mps 713 mmHg 74%
    18:00 +8°C° 0 mm 4 mps 713 mmHg 76%
    19:00 +7°C° 0 mm 4 mps 713 mmHg 79%
    20:00 +7°C° 0 mm 4 mps 713 mmHg 82%
    21:00 +6°C° 0 mm 4 mps 714 mmHg 84%
    22:00 +7°C° 0 mm 3 mps 713 mmHg 86%
    23:00 +7°C° 0 mm 3 mps 713 mmHg 88%

    24 January, Thursday

    Time Temperature Precipitation Wind Pressure Humidity
    00:00 +7°C° 0 mm 3 mps 713 mmHg 89%
    01:00 +7°C° 0 mm 2 mps 713 mmHg 91%
    02:00 +6°C° 0 mm 2 mps 712 mmHg 92%
    03:00 +6°C° 0 mm 2 mps 712 mmHg 93%
    04:00 +7°C° 0 mm 1 mps 712 mmHg 94%
    05:00 +8°C° 0 mm 1 mps 712 mmHg 94%
    06:00 +8°C° 0 mm 1 mps 712 mmHg 95%
    07:00 +8°C° 0 mm 1 mps 713 mmHg 94%
    08:00 +8°C° 0 mm 1 mps 713 mmHg 93%
    09:00 +8°C° 0 mm 1 mps 714 mmHg 91%
    10:00 +10°C° 0 mm 1 mps 714 mmHg 81%
    11:00 +10°C° 0 mm 2 mps 714 mmHg 70%
    12:00 +11°C° 0 mm 3 mps 715 mmHg 59%
    13:00 +12°C° 0 mm 4 mps 714 mmHg 56%
    14:00 +12°C° 0 mm 4 mps 714 mmHg 52%
    15:00 +13°C° 0 mm 5 mps 714 mmHg 49%
    16:00 +11°C° 0 mm 4 mps 714 mmHg 53%
    17:00 +10°C° 0 mm 3 mps 714 mmHg 58%
    18:00 +9°C° 0 mm 2 mps 714 mmHg 62%
    19:00 +8°C° 0 mm 2 mps 715 mmHg 64%
    20:00 +8°C° 0 mm 2 mps 715 mmHg 66%
    21:00 +8°C° 0 mm 1 mps 716 mmHg 69%
    22:00 +8°C° 0 mm 1 mps 716 mmHg 70%
    23:00 +7°C° 0 mm 1 mps 716 mmHg 72%

    25 January, Friday

    Time Temperature Precipitation Wind Pressure Humidity
    00:00 +7°C° 0 mm 1 mps 716 mmHg 73%
    01:00 +7°C° 0 mm 1 mps 716 mmHg 74%
    02:00 +6°C° 0 mm 1 mps 716 mmHg 75%
    03:00 +5°C° 0 mm 2 mps 716 mmHg 76%
    04:00 +5°C° 0 mm 2 mps 716 mmHg 76%
    05:00 +4°C° 0 mm 2 mps 716 mmHg 76%
    06:00 +4°C° 0 mm 2 mps 716 mmHg 76%
    07:00 +5°C° 0 mm 2 mps 717 mmHg 73%
    08:00 +6°C° 0 mm 2 mps 717 mmHg 69%
    09:00 +7°C° 0 mm 2 mps 718 mmHg 65%
    10:00 +9°C° 0 mm 3 mps 718 mmHg 59%
    11:00 +11°C° 0 mm 3 mps 718 mmHg 53%
    12:00 +13°C° 0 mm 3 mps 718 mmHg 47%
    13:00 +14°C° 0 mm 3 mps 718 mmHg 46%
    14:00 +14°C° 0 mm 4 mps 718 mmHg 45%
    15:00 +15°C° 0 mm 4 mps 718 mmHg 45%
    16:00 +13°C° 0 mm 3 mps 718 mmHg 51%
    17:00 +11°C° 0 mm 3 mps 718 mmHg 58%
    18:00 +10°C° 0 mm 2 mps 717 mmHg 64%
    19:00 +9°C° 0 mm 2 mps 718 mmHg 66%
    20:00 +9°C° 0 mm 2 mps 718 mmHg 68%
    21:00 +8°C° 0 mm 2 mps 718 mmHg 69%
    22:00 +9°C° 0 mm 1 mps 718 mmHg 71%
    23:00 +8°C° 0 mm 1 mps 718 mmHg 72%
    Show more